Hourly Data Report for September 07, 2017

All times are specified in Local Standard Time (LST). Add 1 hour to adjust for Daylight Saving Time where and when it is observed.

OTTAWA INTL A
ONTARIO

45°19'00.000" N
75°40'00.000" W
114.90 m
6106001
71628
YOW

Download Data

Hourly Data (September 2017)
Hourly Data Report for September 7, 2017
Temp Definition
°C
Dew Point Temp Definition
°C
Rel Hum Definition
%
Wind Dir Definition
10's deg

Wind Spd Definition
km/h
Visibility Definition
km
Stn Press Definition
kPa
Hmdx Definition


Wind Chill Definition


Weather Definition


TIME
00:00 Legend Double Dagger 13.9 13.4 97 5 7 24.1 99.74     LegendNANA
01:00 Legend Double Dagger 13.4 13.0 97 5 7 12.9 99.70     Cloudy
02:00 Legend Double Dagger 13.5 13.2 98 4 9 3.2 99.60     Fog
03:00 Legend Double Dagger 13.7 13.4 98 5 7 4.8 99.56     Fog
04:00 Legend Double Dagger 13.7 13.4 98 3 4 2.4 99.51     Fog
05:00 Legend Double Dagger 13.9 13.6 98 12 5 0.8 99.52     Fog
06:00 Legend Double Dagger 13.5 13.2 98 21 8 4.8 99.50     Fog
07:00 Legend Double Dagger 13.6 13.1 97 19 5 9.7 99.49     Fog
08:00 Legend Double Dagger 14.3 13.6 95 24 7 12.9 99.48     LegendNANA
09:00 Legend Double Dagger 15.0 13.9 93 27 7 12.9 99.50     LegendNANA
10:00 Legend Double Dagger 16.8 13.8 83 19 7 24.1 99.50     Mostly Cloudy
11:00 Legend Double Dagger 18.4 14.0 75 24 8 24.1 99.48     LegendNANA
12:00 Legend Double Dagger 20.3 13.1 63 21 14 24.1 99.39     LegendNANA
13:00 Legend Double Dagger 13.6 10.8 83 10 5 16.1 99.39     Thunderstorms,Rain Showers
14:00 Legend Double Dagger 13.4 11.6 89 17 12 24.1 99.48     Thunderstorms,Rain Showers
15:00 Legend Double Dagger 15.7 13.3 86 18 8 24.1 99.45     LegendNANA
16:00 Legend Double Dagger 16.4 12.8 79 30 8 24.1 99.49     Mostly Cloudy
17:00 Legend Double Dagger 15.8 13.1 84 14 8 24.1 99.47     LegendNANA
18:00 Legend Double Dagger 13.6 10.0 79 15 5 24.1 99.45     Thunderstorms
19:00 Legend Double Dagger 13.6 11.9 89 32 12 24.1 99.56     Thunderstorms
20:00 Legend Double Dagger 11.9 10.9 94 17 4 24.1 99.65     LegendNANA
21:00 Legend Double Dagger 10.9 10.3 96 18 7 24.1 99.62     LegendNANA
22:00 Legend Double Dagger 10.2 9.9 98 17 5 24.1 99.65     Mainly Clear
23:00 Legend Double Dagger 10.7 9.9 95 20 9 24.1 99.66     LegendNANA

Notes on Data Quality.

Legend

  • E = Estimated
  • M = Missing
  • NA = Not Available
  • ‡ = Partner data that is not subject to review by the National Climate Archives
Date modified: